Back to catalog

FENGYUN 1C DEB

AlivePO
NORAD 31241·DEBRIS·🇨🇳 China

Launched May 10, 1999 from Taiyuan Satellite Launch Center

Loading…

Next Passes (next 24 hours)

TLE

FreshSource: Space-Track

Epoch: Sep 14, 2026, 10:09 UTC

1 31241U 99025BLX 26257.42341543  .00000823  00000-0  27335-3 0  9990
2 31241  99.2659  70.7931 0066714  95.6257 265.2541 14.39480687 16347

Track FENGYUN 1C DEB in real time with AllMySat

Download on the App Store